Location: Saratoga Springs
(43.0831°N, 73.7850°W)
Time: 05:10:18
(UTC-04:00)

Vanguard 2 - Pass Details

Date: 25 April 2024
Orbit: 553 x 2914 km, 32.9° (Epoch: 17 May)

Event Time Altitude Azimuth Distance (km) Brightness Sun altitude
Rises 04:17:41 0° 265° (W) 5,942 - -16.7°
Reaches altitude 10° 04:21:19 10° 261° (W) 5,170 - -16.2°
Exits shadow 04:22:20 13° 260° (W) 4,965 11.1 -16.0°
Maximum altitude 04:36:58 57° 189° (S) 3,256 10.4 -13.8°
Drops below altitude 10° 04:53:33 10° 117° (ESE) 5,440 12.3 -11.3°
Sets 04:57:30 0° 114° (ESE) 6,257 12.7 -10.7°
